クリステンセン彗星

286P/Christensen (2005)

English version
Home page
Updated on June 2, 2013

---------------------------------------------------------------------

・ プロフィール

符号 286P/2005 L4
発見日 2005年6月13日
発見光度 19.1等
発見者 Eric Christensen (Mt. Lemmon Survey)

・ 軌道要素

Epoch 2005 Aug. 18.0 TT = JDT 2453600.5
T 2005 Aug. 24.63045 TT                                 MPC
q   2.3667394            (2000.0)            P               Q
n   0.11809348     Peri.   24.72143     +0.60876481     +0.74066698
a   4.1145160      Node   284.07670     -0.76790127     +0.46007490
e   0.4247830      Incl.   17.04279     -0.19933149     +0.48963611
P   8.35
From 113 observations 2005 June 3-2013 May 30, mean residual 0".5.

・ 星図

・ 光度変化

        m1 = 14.7 + 5 logΔ + 10.0 log r

---------------------------------------------------------------------

軌道要素はM.P.E.C. 2013-K47に掲載されたものです。
星図は StellaNavigator Ver.2.0 for Windows (アストロアーツ 編著 / アスキー出版局刊) で作成したものです。
光度グラフはComet for Windowsで作成したものです。

---------------------------------------------------------------------

Copyright(C) Seiichi Yoshida (comet@aerith.net). All rights reserved.